Scottsbluff, NE

8:50 AM MST on December 17, 2017 (GMT -0700)
Heilig

Weather History for KBFF - January, 1998

Change the Weather History Date:

Wednesday, January 21, 1998

  Actual Average Record
Temperature  
Mean Temperature 22 °F 28 °F  
Max Temperature 35 °F 41 °F 68 °F (2009)
Min Temperature 10 °F 14 °F -26 °F (1930)
Degree Days  
Heating Degree Days 42 37  
Month to date heating degree days 800  
Since 1 July heating degree days 3572  
Cooling Degree Days 0 0  
Month to date cooling degree days 0  
Year to date cooling degree days 0  
Moisture  
Dew Point 16 °F    
Average Humidity 80    
Maximum Humidity 95    
Minimum Humidity 50    
Precipitation  
Precipitation 0.00 in 0.01 in 0.32 in (1974)
Month to date precipitation 0.27  
Year to date precipitation 0.27  
Snow  
Snow 0.00 in 0.10 in 5.00 in (1911)
Month to date snowfall 3.6  
Since 1 July snowfall 19.6  
Snow Depth -    
Sea Level Pressure  
Sea Level Pressure 30.08 in    
Wind  
Wind Speed 5 mph (ENE)    
Max Wind Speed 9 mph    
Max Gust Speed -    
Visibility 9 miles    
Events Snow    
T = Trace of Precipitation, MM = Missing Value Source: NWS Daily Summary

Daily Weather History Graph

Daily Weather History Graph

Search for Another Location

Airport or City:

Trip Planner

Search our weather history database for the weather conditions in past years. The results will help you decide how hot, cold, wet, or windy it might be!

Date:

Astronomy

Jan. 21, 1998 Rise Set
Actual Time 7:16 AM MST 4:55 PM MST
Civil Twilight 6:45 AM MST 5:26 PM MST
Nautical Twilight 6:11 AM MST 6:00 PM MST
Astronomical Twilight 5:38 AM MST 6:33 PM MST
Moon 12:50 AM MST (1/21) 11:53 AM MST (1/21)
Length of Visible Light 10h 40m
Length of Day
9h 39m
Last Quarter, 41% of the Moon is Illuminated
Jan 21
Last Quarter
Jan 27
New
Feb 3
First Quarter
Feb 11
Full
Feb 19
Last Quarter

Hourly Weather History & Observations

Time (MST) Temp. Windchill Dew Point Humidity Pressure Visibility Wind Dir Wind Speed Gust Speed Precip Events Conditions
12:54 AM 19.9 °F 12.1 °F 16.0 °F 85% 30.01 in 10.0 mi West 5.8 mph - N/A   Scattered Clouds
1:54 AM 18.0 °F 11.1 °F 15.1 °F 88% 30.04 in 10.0 mi NW 4.6 mph - N/A   Clear
2:54 AM 16.0 °F 8.8 °F 12.9 °F 88% 30.05 in 10.0 mi North 4.6 mph - N/A   Clear
3:54 AM 12.9 °F - 10.0 °F 88% 30.07 in 10.0 mi Calm Calm - N/A   Clear
4:54 AM 12.0 °F 5.9 °F 10.0 °F 92% 30.08 in 10.0 mi North 3.5 mph - N/A   Clear
5:54 AM 10.9 °F 1.4 °F 9.0 °F 92% 30.09 in 10.0 mi NE 5.8 mph - N/A   Clear
6:54 AM 12.0 °F - 10.0 °F 92% 30.10 in 10.0 mi Calm Calm - N/A   Partly Cloudy
7:54 AM 15.1 °F 5.2 °F 14.0 °F 95% 30.10 in 7.0 mi NE 6.9 mph - N/A   Mostly Cloudy
8:54 AM 18.0 °F 12.7 °F 16.0 °F 92% 30.10 in 10.0 mi ESE 3.5 mph - N/A   Overcast
9:54 AM 21.9 °F 13.4 °F 18.0 °F 85% 30.10 in 9.0 mi ESE 6.9 mph - N/A   Mostly Cloudy
10:54 AM 26.1 °F 19.4 °F 19.0 °F 75% 30.08 in 10.0 mi East 5.8 mph - N/A   Clear
11:54 AM 28.9 °F 22.8 °F 19.0 °F 67% 30.06 in 10.0 mi East 5.8 mph - N/A   Clear
12:54 PM 33.1 °F 27.7 °F 19.0 °F 56% 30.01 in 10.0 mi Variable 5.8 mph - N/A   Clear
1:54 PM 35.1 °F 30.1 °F 19.0 °F 52% 30.00 in 10.0 mi Variable 5.8 mph - N/A   Clear
2:54 PM 35.1 °F 28.6 °F 18.0 °F 50% 30.01 in 10.0 mi ESE 8.1 mph - N/A   Clear
3:54 PM 34.0 °F 26.6 °F 19.0 °F 54% 30.03 in 10.0 mi SE 9.2 mph - N/A   Partly Cloudy
4:54 PM 30.0 °F 22.4 °F 19.9 °F 66% 30.06 in 10.0 mi SSE 8.1 mph - N/A   Partly Cloudy
5:54 PM 26.1 °F 19.4 °F 19.0 °F 75% 30.10 in 10.0 mi ENE 5.8 mph - N/A   Scattered Clouds
6:54 PM 24.1 °F 15.2 °F 19.0 °F 81% 30.12 in 10.0 mi East 8.1 mph - N/A   Clear
7:54 PM 23.0 °F 17.0 °F 19.0 °F 85% 30.12 in 10.0 mi East 4.6 mph - N/A   Mostly Cloudy
8:54 PM 21.0 °F 16.2 °F 18.0 °F 88% 30.12 in 9.0 mi West 3.5 mph - N/A   Mostly Cloudy
9:54 PM 19.0 °F - 17.1 °F 92% 30.13 in 7.0 mi Calm Calm - N/A   Mostly Cloudy
10:54 PM 19.9 °F - 17.1 °F 89% 30.12 in 7.0 mi Calm Calm - 0.00 in Snow Light Snow
11:54 PM 19.0 °F 12.3 °F 17.1 °F 92% 30.12 in 7.0 mi NNW 4.6 mph - 0.00 in   Overcast